User: anonymous   Login
Location: Bailleul
(50.3375°N, 2.8513°E)
Time: 22:25:21
(UTC+00:00)
Language:

Cosmos 2034 Rocket - Orbit

View from above orbital plane
View from above orbital plane
View from above satellite
View from above satellite

Ground track
Ground track

The orbit data is extracted from the following two-line orbital elements,

1 20150U 89059B   21266.87813605  .00000064  00000-0  50273-4 0  9995
2 20150  82.9447  17.0400 0027781 245.9625 235.8504 13.75660259614613
Epoch (UTC): 23 September 2021 21:04:30
Eccentricity: 0.0027781
inclination: 82.9447°
perigee height: 959 km
apogee height: 1000 km
right ascension of ascending node: 17.0400°
argument of perigee: 245.9625°
revolutions per day: 13.75660259
mean anomaly at epoch: 235.8504°
orbit number at epoch: 61461

The dashed part of the orbit path shows where the satellite is in the earth's shadow,  

DLR